STARLINK-2171, 47754

Orbit data source: Space-Track

STARLINK-2171, 47754 is a payload satellite owned by SpaceX/Seattle (US) in LEO that was launched on Thu, 04 Mar 2021 UTC via an FALCON 9 launch vehicle from the Air Force Eastern Test Range (AFETR). Payload-class satellites include a variety of spacecraft equipped with specific instruments for various scientific and technological missions. These include communications satellites like Starlink; space stations such as the ISS; scientific satellites like the Hubble; Earth observation satellites from companies like Planet Labs, Umbra, and HawkEye 360; GPS; miniature CubeSats for education and research; and military/defense satellites.

Loading next visibility...
Identifier
47754, 2021-017AJ
Orbit
LEO
Country
Flag of USUS
Related business
Manufacturer
SpaceX/Seattle
Mission
Partially operational Commercial Communications
Bus & Motor
STARLINK, Unknown motor
Mass
260 kg wet, ~248 kg dry
Launch date (UTC)
2021-03-04 (5 years ago)
Launch vehicle
FALCON 9
Launch site
Air Force Eastern Test Range (AFETR)
Object type
Payload
Rocket body
Debris
Shape & HBR
Box + 1 Pan, 10.1 m
Radar Cross Section
13.562 m², Large (>1 m²)

Expand to show TLE details & history
Last TLE update: 12 hours ago

TLE from 12 hours ago
0 STARLINK-2171
1 47754U 21017AJ  25346.95214201  .00109815  00000-0  22057-2 0  9994
2 47754  53.0523 229.7726 0010020 113.1817 247.0246 15.45778918264829
Epoch: 2025-12-12T22:51Z
TLE epoch observation values (Epoch: 2025-12-12T22:51:05.069Z)
Latitude
Longitude
165.11509°
Altitude
432.653 km
Speed
7.652 km/s
True Right ascension
15h 19m 05s
True Declination
0° 00' 00"
Sunlit
Object was in daylight at epoch
Visualization orbit readout
Latitude
Unknown
Longitude
Unknown
Altitude
Unknown
Speed
Unknown
Apparent Right ascension
Unknown
Apparent Declination
Unknown
Sunlit
N/A
Visualization observer readout
Local Sidereal Time
09:16:58
Azimuth
Unknown
Elevation
Unknown
Doppler factor
Unknown
Orbital elements
Apogee altitude
436.187 km
Perigee altitude
422.545 km
Semi-major axis
6,807.503 km
Eccentricity
0.001
Inclination
53.0523°
RAAN
229.7726°
Arg. of periapsis
113.1817°
True anomaly
246.91894°
Mean anomaly
247.0246°
Eccentric anomaly
246.97176°
Mean motion
3.86422 °/min
Orbital period
93.16 mins
BSTAR
0.0022057
Loading maneuver chart data...
Computing Atmospheric mass density...
Loading historical data...
Loading historical data...
Loading historical data...
Loading historical data...
Loading historical data...
Loading historical data...
Loading historical data...

Documentation

Showing up to 5 results
|